Location: Gollag?dem
(17.0207°N, 80.7261°E)
Time: 00:53:58
(UTC+00:00)

Cosmos 1536 Rocket - Pass Details

Date: 03 August 2024
Orbit: 602 x 627 km, 82.5° (Epoch: 12 September)

Event Time Altitude Azimuth Distance (km) Brightness Sun altitude
Rises 13:40:24 0° 172° (S) 2,841 6.7 -8.0°
Reaches altitude 10° 13:42:40 10° 166° (SSE) 1,938 5.8 -8.5°
Maximum altitude 13:46:47 46° 93° (E) 806 3.8 -9.4°
Drops below altitude 10° 13:50:53 10° 19° (NNE) 1,942 6.1 -10.3°
Sets 13:53:09 0° 14° (NNE) 2,848 7.1 -10.8°
